Location: Prestwich
(53.5236°N, 2.2783°W)
Time: 20:52:40
(UTC+01:00)

ISS - Visible Passes

Search period start: 12 October 2024 00:00
Search period end: 22 October 2024 00:00
Orbit: 411 x 424 km, 51.6° (Epoch: 12 October)

Date Brightness Start Highest point End Pass type
(mag) Time Alt. Az. Time Alt. Az. Time Alt. Az.
16 Oct -0.2 07:00:03 10° SE 07:00:12 10° SE 07:00:20 10° SE visible
18 Oct -1.2 06:57:18 10° SSW 06:59:45 19° SSE 07:02:14 10° E visible
19 Oct -1.0 06:09:42 10° S 06:11:31 14° SE 06:13:20 10° ESE visible
20 Oct -2.2 06:56:14 10° SW 06:59:16 33° SSE 07:02:18 10° E visible
21 Oct -1.9 06:08:34 13° SSW 06:10:52 25° SSE 06:13:39 10° E visible
